| time (UTC) | temp F | wind direction | speed MPH | gust MPH | rain 1hr in | rain 24hr in | rain mn in | humidity % | barometer mb |
| 20260506091241 | 58 | 21 | 2.0 | 2.0 | 0.00 | 0.00 | 0.00 | 99 | 1017.1 |
| 20260506090739 | 57 | 26 | 5.0 | 8.0 | 0.00 | 0.00 | 0.00 | 99 | 1016.8 |
| 20260506090235 | 58 | 70 | 4.0 | 11.0 | 0.00 | 0.00 | 0.00 | 99 | 1017.0 |
| 20260506085732 | 58 | 3 | 3.0 | 9.0 | 0.00 | 0.00 | 0.00 | 99 | 1016.9 |
| 20260506085228 | 58 | 13 | 4.0 | 6.0 | 0.00 | 0.00 | 0.00 | 99 | 1016.8 |
| 20260506084726 | 58 | 339 | 5.0 | 9.0 | 0.00 | 0.00 | 0.00 | 99 | 1016.7 |
| 20260506084221 | 58 | 326 | 2.0 | 5.0 | 0.00 | 0.00 | 0.00 | 99 | 1016.8 |
| 20260506083718 | 58 | 90 | 4.0 | 7.0 | 0.00 | 0.00 | 0.00 | 99 | 1016.6 |
| 20260506083216 | 57 | 24 | 5.0 | 7.0 | 0.00 | 0.00 | 0.00 | 99 | 1016.6 |
| 20260506082713 | 57 | 29 | 3.0 | 8.0 | 0.00 | 0.00 | 0.00 | 99 | 1016.5 |
| 20260506082209 | 57 | 90 | 0.0 | 9.0 | 0.00 | 0.00 | 0.00 | 99 | 1016.5 |
| 20260506081707 | 57 | 95 | 2.0 | 8.0 | 0.00 | 0.00 | 0.00 | 99 | 1016.5 |
| 20260506081204 | 57 | 13 | 5.0 | 7.0 | 0.00 | 0.00 | 0.00 | 99 | 1016.0 |
| 20260506080701 | 57 | 61 | 2.0 | 7.0 | 0.00 | 0.00 | 0.00 | 99 | 1016.4 |
| 20260506080158 | 58 | 96 | 1.0 | 4.0 | 0.00 | 0.00 | 0.00 | 99 | 1016.3 |
| 20260506073143 | 58 | 0 | 0.0 | 10.0 | 0.00 | 0.00 | 0.00 | 99 | 1016.4 |
| 20260506072638 | 58 | 29 | 3.0 | 10.0 | 0.00 | 0.00 | 0.00 | 99 | 1016.3 |
| 20260506072137 | 59 | 30 | 5.0 | 6.0 | 0.00 | 0.00 | 0.00 | 99 | 1016.5 |
| 20260506071634 | 58 | 22 | 3.0 | 7.0 | 0.00 | 0.00 | 0.00 | 99 | 1016.4 |
| 20260506071131 | 58 | 10 | 3.0 | 4.0 | 0.00 | 0.00 | 0.00 | 99 | 1016.3 |
| 20260506070628 | 58 | 31 | 6.0 | 8.0 | 0.00 | 0.00 | 0.00 | 99 | 1016.4 |
| 20260506070126 | 59 | 353 | 3.0 | 7.0 | 0.00 | 0.00 | 0.00 | 99 | 1016.4 |
| 20260506062103 | 60 | 25 | 3.0 | 5.0 | 0.00 | 0.00 | 0.00 | 99 | 1016.1 |
| 20260506061558 | 60 | 297 | 2.0 | 7.0 | 0.00 | 0.00 | 0.00 | 99 | 1016.4 |
| 20260506061056 | 60 | 58 | 6.0 | 8.0 | 0.00 | 0.00 | 0.00 | 99 | 1016.2 |
| 20260506060555 | 60 | 36 | 3.0 | 10.0 | 0.00 | 0.00 | 0.00 | 99 | 1016.1 |
| 20260506051024 | 62 | 0 | 0.0 | 8.0 | 0.00 | 0.00 | 0.00 | 99 | 1016.3 |
| 20260506050521 | 62 | 49 | 5.0 | 8.0 | 0.00 | 0.00 | 0.00 | 99 | 1016.2 |
| 20260506045011 | 62 | 64 | 3.0 | 11.0 | 0.00 | 0.00 | 0.00 | 99 | 1016.0 |
| 20260506044510 | 62 | 312 | 4.0 | 7.0 | 0.00 | 0.00 | 0.00 | 99 | 1016.2 |
| 20260506044006 | 63 | 5 | 6.0 | 10.0 | 0.00 | 0.00 | 0.00 | 99 | 1016.2 |
| 20260506043503 | 63 | 24 | 5.0 | 7.0 | 0.00 | 0.00 | 0.00 | 99 | 1015.8 |
| 20260506043001 | 63 | 9 | 5.0 | 8.0 | 0.00 | 0.00 | 0.00 | 99 | 1016.0 |
| 20260506042501 | 63 | 28 | 6.0 | 9.0 | 0.00 | 0.00 | 0.00 | 99 | 1015.8 |
| 20260506041958 | 63 | 357 | 3.0 | 12.0 | 0.00 | 0.00 | 0.00 | 99 | 1016.1 |
| 20260506041456 | 63 | 48 | 8.0 | 10.0 | 0.00 | 0.00 | 0.00 | 99 | 1015.9 |
| 20260506040953 | 63 | 33 | 5.0 | 8.0 | 0.00 | 0.00 | 0.00 | 99 | 1015.5 |
| 20260506040451 | 64 | 97 | 3.0 | 7.0 | 0.00 | 0.00 | 0.00 | 99 | 1015.6 |
| 20260506035946 | 64 | 19 | 4.0 | 5.0 | 0.00 | 0.00 | 0.00 | 99 | 1015.5 |
| 20260506035444 | 64 | 36 | 9.0 | 9.0 | 0.00 | 0.00 | 0.00 | 99 | 1015.6 |
| 20260506034940 | 65 | 29 | 6.0 | 9.0 | 0.00 | 0.00 | 0.00 | 99 | 1015.5 |
| 20260506034438 | 65 | 50 | 4.0 | 16.0 | 0.00 | 0.00 | 0.00 | 99 | 1015.3 |
| 20260506033935 | 66 | 12 | 6.0 | 13.0 | 0.00 | 0.00 | 0.00 | 99 | 1015.2 |
| 20260506033432 | 66 | 26 | 9.0 | 14.0 | 0.00 | 0.00 | 0.00 | 99 | 1015.4 |
| 20260506032928 | 66 | 83 | 7.0 | 10.0 | 0.00 | 0.00 | 0.00 | 99 | 1015.2 |
| 20260506032426 | 66 | 0 | 3.0 | 12.0 | 0.00 | 0.00 | 0.00 | 99 | 1014.7 |
| 20260506031922 | 67 | 33 | 5.0 | 11.0 | 0.00 | 0.00 | 0.00 | 99 | 1014.7 |
| 20260506031419 | 68 | 50 | 3.0 | 9.0 | 0.00 | 0.00 | 0.00 | 99 | 1014.5 |
| 20260506030917 | 68 | 8 | 6.0 | 10.0 | 0.00 | 0.00 | 0.00 | 99 | 1014.6 |
| 20260506030415 | 68 | 56 | 2.0 | 13.0 | 0.00 | 0.00 | 0.00 | 99 | 1014.5 |
| 20260506025911 | 69 | 25 | 6.0 | 11.0 | 0.00 | 0.00 | 0.00 | 99 | 1014.5 |
| 20260506025409 | 69 | 29 | 8.0 | 9.0 | 0.00 | 0.00 | 0.00 | 99 | 1014.4 |
| 20260506024905 | 69 | 352 | 6.0 | 11.0 | 0.00 | 0.00 | 0.00 | 99 | 1014.5 |
| 20260506024402 | 69 | 7 | 4.0 | 10.0 | 0.00 | 0.00 | 0.00 | 99 | 1014.2 |
| 20260506023858 | 69 | 126 | 4.0 | 13.0 | 0.00 | 0.00 | 0.00 | 99 | 1013.8 |
| 20260506023355 | 70 | 0 | 0.0 | 6.0 | 0.00 | 0.00 | 0.00 | 99 | 1013.4 |
| 20260506022852 | 70 | 16 | 8.0 | 13.0 | 0.00 | 0.00 | 0.00 | 99 | 1013.5 |
| 20260506022349 | 70 | 7 | 9.0 | 11.0 | 0.00 | 0.00 | 0.00 | 99 | 1013.4 |
| 20260506021847 | 71 | 356 | 3.0 | 9.0 | 0.00 | 0.00 | 0.00 | 99 | 1013.3 |
| 20260506021344 | 71 | 16 | 5.0 | 9.0 | 0.00 | 0.00 | 0.00 | 99 | 1013.3 |
| 20260506020840 | 71 | 86 | 2.0 | 10.0 | 0.00 | 0.00 | 0.00 | 99 | 1012.9 |
| 20260506020339 | 73 | 58 | 3.0 | 10.0 | 0.00 | 0.00 | 0.00 | 99 | 1012.4 |
| 20260506015836 | 73 | 22 | 7.0 | 11.0 | 0.00 | 0.00 | 0.00 | 99 | 1012.7 |
| 20260506015334 | 73 | 43 | 4.0 | 7.0 | 0.00 | 0.00 | 0.00 | 99 | 1012.9 |
| 20260506014830 | 73 | 54 | 4.0 | 5.0 | 0.00 | 0.00 | 0.00 | 99 | 1012.7 |
| 20260506014327 | 73 | 45 | 4.0 | 5.0 | 0.00 | 0.00 | 0.00 | 99 | 1012.5 |
| 20260506013823 | 73 | 26 | 5.0 | 9.0 | 0.00 | 0.00 | 0.00 | 99 | 1012.6 |
| 20260506013321 | 74 | 15 | 3.0 | 6.0 | 0.00 | 0.00 | 0.00 | 99 | 1012.6 |
| 20260506012817 | 74 | 20 | 3.0 | 6.0 | 0.00 | 0.00 | 0.00 | 99 | 1012.4 |
| 20260506012314 | 74 | 50 | 3.0 | 7.0 | 0.00 | 0.00 | 0.00 | 99 | 1012.8 |
| 20260506011812 | 74 | 23 | 4.0 | 6.0 | 0.00 | 0.00 | 0.00 | 99 | 1012.6 |
| 20260506011308 | 74 | 65 | 5.0 | 6.0 | 0.00 | 0.00 | 0.00 | 99 | 1012.4 |
| 20260506010806 | 74 | 46 | 8.0 | 9.0 | 0.00 | 0.00 | 0.00 | 99 | 1012.3 |
| 20260506010303 | 74 | 0 | 3.0 | 4.0 | 0.00 | 0.00 | 0.00 | 99 | 1012.3 |
| 20260506005800 | 74 | 47 | 3.0 | 6.0 | 0.00 | 0.00 | 0.00 | 99 | 1012.0 |
| 20260506005257 | 74 | 11 | 5.0 | 9.0 | 0.00 | 0.00 | 0.00 | 99 | 1011.7 |
| 20260506004753 | 75 | 20 | 10.0 | 10.0 | 0.00 | 0.00 | 0.00 | 99 | 1011.8 |
| 20260506004251 | 75 | 29 | 7.0 | 10.0 | 0.00 | 0.00 | 0.00 | 99 | 1011.9 |
| 20260506003746 | 76 | 9 | 5.0 | 9.0 | 0.00 | 0.00 | 0.00 | 99 | 1011.9 |
| 20260506003243 | 76 | 12 | 9.0 | 10.0 | 0.00 | 0.00 | 0.00 | 99 | 1011.8 |
| 20260506002739 | 77 | 354 | 0.0 | 8.0 | 0.00 | 0.00 | 0.00 | 99 | 1011.7 |
| 20260506002236 | 78 | 353 | 3.0 | 7.0 | 0.00 | 0.00 | 0.00 | 99 | 1011.6 |
| 20260506001731 | 78 | 92 | 6.0 | 10.0 | 0.00 | 0.00 | 0.00 | 99 | 1011.8 |
| 20260506001229 | 79 | 358 | 3.0 | 7.0 | 0.00 | 0.00 | 0.00 | 99 | 1011.8 |
| 20260506000726 | 79 | 17 | 4.0 | 6.0 | 0.00 | 0.00 | 0.00 | 99 | 1011.5 |
| 20260506000226 | 80 | 266 | 3.0 | 9.0 | 0.00 | 0.00 | 0.00 | 99 | 1011.0 |
| 20260505235720 | 80 | 26 | 2.0 | 7.0 | 0.00 | 0.00 | 0.00 | 99 | 1011.0 |
| 20260505235219 | 80 | 90 | 1.0 | 10.0 | 0.00 | 0.00 | 0.00 | 99 | 1010.7 |
| 20260505234715 | 81 | 110 | 2.0 | 12.0 | 0.00 | 0.00 | 0.00 | 99 | 1010.8 |
| 20260505234212 | 81 | 19 | 5.0 | 8.0 | 0.00 | 0.00 | 0.00 | 99 | 1011.0 |
| 20260505233708 | 82 | 8 | 4.0 | 14.0 | 0.00 | 0.00 | 0.00 | 99 | 1010.8 |
| 20260505233206 | 83 | 51 | 7.0 | 9.0 | 0.00 | 0.00 | 0.00 | 99 | 1011.0 |
| 20260505232704 | 84 | 70 | 3.0 | 10.0 | 0.00 | 0.00 | 0.00 | 99 | 1010.7 |
| 20260505232201 | 85 | 228 | 2.0 | 7.0 | 0.00 | 0.00 | 0.00 | 99 | 1010.6 |
| 20260505231657 | 85 | 293 | 3.0 | 5.0 | 0.00 | 0.00 | 0.00 | 99 | 1010.4 |
| 20260505231157 | 86 | 325 | 1.0 | 6.0 | 0.00 | 0.00 | 0.00 | 99 | 1010.3 |
| 20260505230654 | 86 | 331 | 3.0 | 6.0 | 0.00 | 0.00 | 0.00 | 99 | 1010.3 |
| 20260505230151 | 86 | 331 | 1.0 | 9.0 | 0.00 | 0.00 | 0.00 | 99 | 1010.2 |
| 20260505225647 | 88 | 344 | 5.0 | 12.0 | 0.00 | 0.00 | 0.00 | 99 | 1009.9 |
| 20260505225143 | 89 | 262 | 3.0 | 3.0 | 0.00 | 0.00 | 0.00 | 99 | 1009.8 |
| 20260505224639 | 89 | 274 | 3.0 | 8.0 | 0.00 | 0.00 | 0.00 | 99 | 1009.9 |
| 20260505224138 | 89 | 200 | 1.0 | 5.0 | 0.00 | 0.00 | 0.00 | 99 | 1009.9 |
| 20260505223635 | 89 | 208 | 2.0 | 5.0 | 0.00 | 0.00 | 0.00 | 99 | 1009.7 |
| 20260505223130 | 89 | 255 | 3.0 | 6.0 | 0.00 | 0.00 | 0.00 | 99 | 1009.5 |
| 20260505222627 | 90 | 162 | 2.0 | 3.0 | 0.00 | 0.00 | 0.00 | 99 | 1009.6 |
| 20260505222123 | 89 | 246 | 0.0 | 3.0 | 0.00 | 0.00 | 0.00 | 99 | 1009.5 |
| 20260505221620 | 90 | 124 | 0.0 | 6.0 | 0.00 | 0.00 | 0.00 | 99 | 1009.4 |
| 20260505221117 | 90 | 120 | 0.0 | 5.0 | 0.00 | 0.00 | 0.00 | 99 | 1009.3 |
| 20260505220614 | 90 | 270 | 2.0 | 11.0 | 0.00 | 0.00 | 0.00 | 99 | 1009.5 |
| 20260505220112 | 90 | 172 | 0.0 | 3.0 | 0.00 | 0.00 | 0.00 | 99 | 1009.6 |
| 20260505215609 | 91 | 270 | 0.0 | 6.0 | 0.00 | 0.00 | 0.00 | 99 | 1009.7 |
| 20260505215107 | 93 | 114 | 0.0 | 3.0 | 0.00 | 0.00 | 0.00 | 99 | 1009.7 |
| 20260505214605 | 91 | 259 | 5.0 | 5.0 | 0.00 | 0.00 | 0.00 | 99 | 1009.6 |
| 20260505214102 | 91 | 121 | 2.0 | 6.0 | 0.00 | 0.00 | 0.00 | 99 | 1009.7 |
| 20260505213600 | 90 | 130 | 0.0 | 7.0 | 0.00 | 0.00 | 0.00 | 99 | 1009.7 |
| 20260505213056 | 91 | 228 | 0.0 | 9.0 | 0.00 | 0.00 | 0.00 | 99 | 1009.8 |
| 20260505212552 | 89 | 228 | 2.0 | 7.0 | 0.00 | 0.00 | 0.00 | 99 | 1009.6 |
| 20260505212050 | 91 | 232 | 4.0 | 4.0 | 0.00 | 0.00 | 0.00 | 99 | 1009.9 |
| 20260505211547 | 90 | 266 | 3.0 | 6.0 | 0.00 | 0.00 | 0.00 | 99 | 1010.3 |
| 20260505211043 | 91 | 225 | 4.0 | 5.0 | 0.00 | 0.00 | 0.00 | 99 | 1010.0 |
| 20260505210540 | 91 | 285 | 0.0 | 9.0 | 0.00 | 0.00 | 0.00 | 99 | 1010.0 |
| 20260505210037 | 91 | 129 | 2.0 | 5.0 | 0.00 | 0.00 | 0.00 | 99 | 1010.3 |
| 20260505205535 | 89 | 255 | 0.0 | 11.0 | 0.00 | 0.00 | 0.00 | 99 | 1010.2 |
| 20260505205032 | 88 | 105 | 1.0 | 7.0 | 0.00 | 0.00 | 0.00 | 99 | 1010.6 |
| 20260505204530 | 87 | 242 | 3.0 | 11.0 | 0.00 | 0.00 | 0.00 | 99 | 1010.3 |
| 20260505204027 | 87 | 195 | 1.0 | 15.0 | 0.00 | 0.00 | 0.00 | 99 | 1010.4 |
| 20260505203523 | 89 | 252 | 3.0 | 8.0 | 0.00 | 0.00 | 0.00 | 99 | 1010.8 |
| 20260505203020 | 89 | 270 | 0.0 | 8.0 | 0.00 | 0.00 | 0.00 | 99 | 1010.5 |
| 20260505202516 | 89 | 150 | 2.0 | 5.0 | 0.00 | 0.00 | 0.00 | 99 | 1010.5 |
| 20260505202012 | 90 | 144 | 0.0 | 5.0 | 0.00 | 0.00 | 0.00 | 99 | 1010.8 |
| 20260505201510 | 88 | 257 | 5.0 | 10.0 | 0.00 | 0.00 | 0.00 | 99 | 1010.7 |
| 20260505201007 | 87 | 195 | 2.0 | 12.0 | 0.00 | 0.00 | 0.00 | 99 | 1010.6 |
| 20260505200505 | 89 | 241 | 2.0 | 7.0 | 0.00 | 0.00 | 0.00 | 99 | 1010.6 |
| 20260505200001 | 87 | 218 | 5.0 | 11.0 | 0.00 | 0.00 | 0.00 | 99 | 1011.0 |
| 20260505195458 | 88 | 246 | 8.0 | 14.0 | 0.00 | 0.00 | 0.00 | 99 | 1010.9 |
| 20260505194955 | 87 | 247 | 3.0 | 9.0 | 0.00 | 0.00 | 0.00 | 99 | 1011.1 |
| 20260505194452 | 87 | 262 | 3.0 | 10.0 | 0.00 | 0.00 | 0.00 | 99 | 1011.1 |
| 20260505193952 | 86 | 228 | 0.0 | 5.0 | 0.00 | 0.00 | 0.00 | 99 | 1011.2 |
| 20260505193450 | 86 | 236 | 5.0 | 9.0 | 0.00 | 0.00 | 0.00 | 99 | 1010.9 |
| 20260505192947 | 87 | 158 | 4.0 | 5.0 | 0.00 | 0.00 | 0.00 | 99 | 1010.8 |
| 20260505192446 | 86 | 242 | 9.0 | 13.0 | 0.00 | 0.00 | 0.00 | 99 | 1011.0 |
| 20260505191943 | 86 | 250 | 4.0 | 11.0 | 0.00 | 0.00 | 0.00 | 99 | 1010.8 |
| 20260505191442 | 86 | 137 | 4.0 | 9.0 | 0.00 | 0.00 | 0.00 | 99 | 1010.7 |
| 20260505190938 | 85 | 241 | 4.0 | 14.0 | 0.00 | 0.00 | 0.00 | 99 | 1010.9 |
| 20260505190433 | 85 | 233 | 5.0 | 15.0 | 0.00 | 0.00 | 0.00 | 99 | 1011.0 |
| 20260505185929 | 85 | 198 | 2.0 | 14.0 | 0.00 | 0.00 | 0.00 | 99 | 1011.0 |
| 20260505185427 | 84 | 223 | 4.0 | 11.0 | 0.00 | 0.00 | 0.00 | 99 | 1011.0 |
| 20260505184922 | 83 | 204 | 2.0 | 17.0 | 0.00 | 0.00 | 0.00 | 99 | 1011.0 |
| 20260505184420 | 84 | 123 | 0.0 | 6.0 | 0.00 | 0.00 | 0.00 | 99 | 1011.2 |
| 20260505183916 | 83 | 228 | 2.0 | 7.0 | 0.00 | 0.00 | 0.00 | 99 | 1011.3 |
| 20260505183413 | 83 | 217 | 6.0 | 10.0 | 0.00 | 0.00 | 0.00 | 99 | 1011.0 |
| 20260505182910 | 83 | 254 | 7.0 | 11.0 | 0.00 | 0.00 | 0.00 | 99 | 1011.2 |
| 20260505182407 | 84 | 198 | 2.0 | 4.0 | 0.00 | 0.00 | 0.00 | 99 | 1011.0 |
| 20260505181903 | 83 | 180 | 2.0 | 8.0 | 0.00 | 0.00 | 0.00 | 99 | 1011.3 |
| 20260505181401 | 83 | 117 | 1.0 | 14.0 | 0.00 | 0.00 | 0.00 | 99 | 1011.2 |
| 20260505180857 | 83 | 240 | 2.0 | 11.0 | 0.00 | 0.00 | 0.00 | 99 | 1011.4 |
| 20260505180354 | 82 | 209 | 3.0 | 20.0 | 0.00 | 0.00 | 0.00 | 99 | 1011.0 |
| 20260505175850 | 83 | 209 | 5.0 | 9.0 | 0.00 | 0.00 | 0.00 | 99 | 1011.0 |
| 20260505175346 | 84 | 258 | 6.0 | 9.0 | 0.00 | 0.00 | 0.00 | 99 | 1011.1 |
| 20260505174837 | 83 | 237 | 7.0 | 14.0 | 0.00 | 0.00 | 0.00 | 99 | 1011.1 |
| 20260505174335 | 82 | 233 | 3.0 | 10.0 | 0.00 | 0.00 | 0.00 | 99 | 1011.4 |
| 20260505173830 | 82 | 220 | 0.0 | 13.0 | 0.00 | 0.00 | 0.00 | 99 | 1011.1 |
| 20260505173327 | 82 | 148 | 4.0 | 6.0 | 0.00 | 0.00 | 0.00 | 99 | 1011.3 |
| 20260505172825 | 82 | 246 | 3.0 | 11.0 | 0.00 | 0.00 | 0.00 | 99 | 1011.4 |
| 20260505172322 | 81 | 229 | 3.0 | 13.0 | 0.00 | 0.00 | 0.00 | 99 | 1011.4 |
| 20260505171822 | 82 | 196 | 3.0 | 12.0 | 0.00 | 0.00 | 0.00 | 99 | 1011.4 |
| 20260505171319 | 81 | 198 | 3.0 | 9.0 | 0.00 | 0.00 | 0.00 | 99 | 1011.5 |
| 20260505170815 | 80 | 227 | 11.0 | 14.0 | 0.00 | 0.00 | 0.00 | 99 | 1011.5 |
| 20260505170312 | 80 | 24 | 0.0 | 15.0 | 0.00 | 0.00 | 0.00 | 99 | 1011.5 |
| 20260505165808 | 81 | 155 | 3.0 | 9.0 | 0.00 | 0.00 | 0.00 | 99 | 1011.6 |
| 20260505165306 | 81 | 243 | 1.0 | 9.0 | 0.00 | 0.00 | 0.00 | 99 | 1011.6 |
| 20260505164759 | 80 | 188 | 0.0 | 12.0 | 0.00 | 0.00 | 0.00 | 99 | 1011.3 |
| 20260505164256 | 80 | 261 | 3.0 | 8.0 | 0.00 | 0.00 | 0.00 | 99 | 1011.3 |
| 20260505163755 | 80 | 275 | 0.0 | 13.0 | 0.00 | 0.00 | 0.00 | 99 | 1011.5 |
| 20260505163253 | 79 | 195 | 2.0 | 12.0 | 0.00 | 0.00 | 0.00 | 99 | 1011.7 |
| 20260505162750 | 79 | 228 | 5.0 | 16.0 | 0.00 | 0.00 | 0.00 | 99 | 1011.4 |
| 20260505162247 | 79 | 306 | 0.0 | 9.0 | 0.00 | 0.00 | 0.00 | 99 | 1011.3 |
| 20260505161744 | 80 | 120 | 0.0 | 9.0 | 0.00 | 0.00 | 0.00 | 99 | 1011.6 |
| 20260505161241 | 79 | 150 | 2.0 | 8.0 | 0.00 | 0.00 | 0.00 | 99 | 1011.4 |
| 20260505160738 | 79 | 115 | 2.0 | 9.0 | 0.00 | 0.00 | 0.00 | 99 | 1011.1 |
| 20260505160236 | 79 | 243 | 8.0 | 11.0 | 0.00 | 0.00 | 0.00 | 99 | 1011.1 |
| 20260505153215 | 78 | 232 | 10.0 | 15.0 | 0.00 | 0.00 | 0.00 | 99 | 1011.0 |
| 20260505152712 | 78 | 226 | 5.0 | 11.0 | 0.00 | 0.00 | 0.00 | 99 | 1011.2 |
| 20260505152209 | 78 | 180 | 0.0 | 8.0 | 0.00 | 0.00 | 0.00 | 99 | 1011.2 |
| 20260505151703 | 77 | 270 | 1.0 | 12.0 | 0.00 | 0.00 | 0.00 | 99 | 1011.3 |
| 20260505151201 | 77 | 211 | 3.0 | 14.0 | 0.00 | 0.00 | 0.00 | 99 | 1011.6 |
| 20260505150657 | 77 | 253 | 2.0 | 12.0 | 0.00 | 0.00 | 0.00 | 99 | 1011.3 |
| 20260505150155 | 77 | 221 | 4.0 | 13.0 | 0.00 | 0.00 | 0.00 | 99 | 1011.5 |
| 20260505140622 | 74 | 241 | 9.0 | 12.0 | 0.00 | 0.00 | 0.00 | 99 | 1011.6 |
| 20260505140120 | 73 | 135 | 2.0 | 11.0 | 0.00 | 0.00 | 0.00 | 99 | 1011.4 |
| 20260505125036 | 72 | 133 | 0.0 | 3.0 | 0.00 | 0.00 | 0.00 | 99 | 1011.0 |
| 20260505124533 | 72 | 81 | 0.0 | 5.0 | 0.00 | 0.00 | 0.00 | 99 | 1010.9 |
| 20260505124029 | 72 | 172 | 0.0 | 6.0 | 0.00 | 0.00 | 0.00 | 99 | 1011.2 |
| 20260505123525 | 72 | 231 | 3.0 | 10.0 | 0.00 | 0.00 | 0.00 | 99 | 1010.8 |
| 20260505123021 | 72 | 174 | 0.0 | 5.0 | 0.00 | 0.00 | 0.00 | 99 | 1010.7 |
| 20260505122519 | 72 | 257 | 0.0 | 9.0 | 0.00 | 0.00 | 0.00 | 99 | 1010.5 |
| 20260505122016 | 72 | 157 | 4.0 | 7.0 | 0.00 | 0.00 | 0.00 | 99 | 1010.7 |
| 20260505121512 | 71 | 154 | 0.0 | 5.0 | 0.00 | 0.00 | 0.00 | 99 | 1010.7 |
| 20260505121009 | 71 | 259 | 5.0 | 6.0 | 0.00 | 0.00 | 0.00 | 99 | 1010.6 |
| 20260505120506 | 72 | 246 | 0.0 | 7.0 | 0.00 | 0.00 | 0.00 | 99 | 1010.8 |
| 20260505120006 | 72 | 195 | 3.0 | 5.0 | 0.00 | 0.00 | 0.00 | 99 | 1010.6 |
| 20260505115501 | 72 | 220 | 0.0 | 7.0 | 0.00 | 0.00 | 0.00 | 99 | 1010.8 |
| 20260505114959 | 71 | 193 | 3.0 | 13.0 | 0.00 | 0.00 | 0.00 | 99 | 1010.8 |
| 20260505114455 | 71 | 133 | 3.0 | 6.0 | 0.00 | 0.00 | 0.00 | 99 | 1010.5 |
| 20260505113952 | 71 | 240 | 5.0 | 9.0 | 0.00 | 0.00 | 0.00 | 99 | 1010.4 |
| 20260505113449 | 71 | 172 | 6.0 | 6.0 | 0.00 | 0.00 | 0.00 | 99 | 1010.4 |
| 20260505112944 | 71 | 276 | 2.0 | 5.0 | 0.00 | 0.00 | 0.00 | 99 | 1010.4 |
| 20260505112442 | 71 | 117 | 1.0 | 5.0 | 0.00 | 0.00 | 0.00 | 99 | 1010.3 |
| 20260505111938 | 71 | 244 | 4.0 | 9.0 | 0.00 | 0.00 | 0.00 | 99 | 1010.4 |
| 20260505111432 | 71 | 212 | 2.0 | 9.0 | 0.00 | 0.00 | 0.00 | 99 | 1010.5 |
| 20260505110929 | 71 | 194 | 0.0 | 7.0 | 0.00 | 0.00 | 0.00 | 99 | 1010.6 |
| 20260505110426 | 71 | 126 | 0.0 | 8.0 | 0.00 | 0.00 | 0.00 | 99 | 1010.4 |
| 20260505101857 | 71 | 103 | 3.0 | 11.0 | 0.00 | 0.00 | 0.00 | 99 | 1010.4 |
| 20260505101351 | 71 | 157 | 3.0 | 9.0 | 0.00 | 0.00 | 0.00 | 99 | 1010.7 |
| 20260505100848 | 72 | 148 | 2.0 | 8.0 | 0.00 | 0.00 | 0.00 | 99 | 1010.5 |
| 20260505100344 | 72 | 152 | 4.0 | 12.0 | 0.00 | 0.00 | 0.00 | 99 | 1010.4 |
| 20260505095840 | 72 | 184 | 2.0 | 5.0 | 0.00 | 0.00 | 0.00 | 99 | 1010.4 |
| 20260505095338 | 72 | 120 | 1.0 | 14.0 | 0.00 | 0.00 | 0.00 | 99 | 1010.4 |
| 20260505094833 | 72 | 105 | 2.0 | 7.0 | 0.00 | 0.00 | 0.00 | 99 | 1010.6 |
| 20260505094331 | 72 | 212 | 6.0 | 10.0 | 0.00 | 0.00 | 0.00 | 99 | 1010.6 |
| 20260505093826 | 71 | 176 | 3.0 | 5.0 | 0.00 | 0.00 | 0.00 | 99 | 1010.8 |
| 20260505093324 | 71 | 285 | 1.0 | 14.0 | 0.00 | 0.00 | 0.00 | 99 | 1010.5 |
| 20260505092820 | 71 | 168 | 3.0 | 9.0 | 0.00 | 0.00 | 0.00 | 99 | 1010.6 |
| 20260505092319 | 71 | 249 | 0.0 | 6.0 | 0.00 | 0.00 | 0.00 | 99 | 1010.7 |
| 20260505091816 | 71 | 217 | 6.0 | 9.0 | 0.00 | 0.00 | 0.00 | 99 | 1011.0 |